EHI
1 2 5 5 3 3 6 9 10 7 4 3 5 5 4 4 6 5 3 3 3 3 3 3 1 0 0 0 0 0 0 0 0 0 0 0 0 0 0 0 0 0 0
1 2 5 6 6 6 8 11 11 7 3 2 3 4 3 3 4 3 2 2 3 2 2 2 1 0 0 0 0 0 0 0 0 0 0 0 0 0 0 0 0 0 0
2 2 5 8 9 10 12 14 12 6 2 1 2 2 2 2 1 1 1 1 1 1 1 1 1 0 0 0 0 0 0 0 0 0 0 0 0 0 0 0 0 0 0
3 3 6 11 13 14 15 14 11 5 1 1 2 2 1 1 0 0 0 0 0 0 0 0 0 0 0 0 0 0 0 0 0 0 0 0 0 0 0 0 0 0 0
3 3 7 13 16 17 15 11 7 3 1 2 3 2 1 0 0 0 0 0 0 0 0 0 0 0 0 0 0 0 0 0 0 0 0 0 0 0 0 0 0 0 0
2 2 5 12 18 18 13 8 4 2 1 1 2 2 1 0 0 0 0 0 0 0 0 0 0 0 0 0 0 0 0 0 0 0 0 0 0 0 0 0 0 0 0
1 1 3 10 15 15 11 6 3 2 2 1 1 1 1 0 0 0 0 0 0 0 0 0 0 0 0 0 0 0 0 0 0 0 0 0 0 0 0 0 0 0 0
2 2 3 7 10 12 9 6 4 3 3 2 1 0 0 0 0 0 0 1 0 0 0 0 0 0 0 0 0 0 0 0 0 0 0 0 0 0 0 0 0 0 0
4 4 4 5 7 8 8 6 4 3 3 3 2 1 1 0 0 0 0 0 0 0 0 0 0 0 0 0 0 0 0 0 0 0 0 0 0 0 0 0 0 0 0
4 5 6 7 6 5 5 5 3 2 2 2 2 2 1 0 0 0 0 0 0 0 1 0 0 0 0 0 0 0 0 0 0 0 0 0 0 0 0 0 0 0 0
3 4 8 9 6 4 3 3 2 1 1 1 1 1 0 0 0 0 0 0 0 0 0 0 0 0 0 0 0 0 0 0 0 0 0 0 0 0 0 0 0 0 0
1 2 5 6 4 3 3 2 1 0 0 0 1 0 0 0 0 0 0 0 0 0 0 0 0 0 0 0 0 0 0 0 0 0 0 0 0 0 0 0 0 0 0
0 0 1 2 2 2 1 1 0 0 0 0 0 0 0 0 0 0 0 0 0 0 0 0 0 0 0 0 0 0 0 0 0 0 0 0 0 0 0 0 0 0 0
0 0 0 0 0 0 0 0 0 0 0 0 0 0 0 0 0 0 0 0 0 0 0 0 0 0 0 0 0 0 0 0 0 0 0 0 0 0 0 0 0 0 0
0 0 0 0 0 0 0 0 0 0 0 1 0 0 0 0 0 0 0 0 0 0 0 0 0 0 0 0 0 0 0 0 0 0 0 0 0 0 0 0 0 0 0
0 0 0 0 0 0 0 0 0 0 0 0 0 0 0 0 0 0 0 0 0 0 0 0 0 0 0 0 0 0 0 0 0 0 0 0 0 0 0 0 0 0 0
0 0 0 0 0 0 0 0 0 0 0 0 0 0 0 0 0 0 0 0 0 0 0 0 0 0 0 0 0 0 0 0 0 0 0 0 0 0 0 0 0 0 0
0 0 0 0 0 0 0 0 0 0 0 0 0 0 0 0 0 0 0 0 0 0 0 0 0 0 0 0 0 0 0 0 0 0 0 0 0 0 0 0 0 0 0
0 0 0 0 0 0 0 0 0 0 0 0 0 0 0 0 0 0 0 0 0 0 0 0 0 0 0 0 0 0 0 0 0 0 0 0 0 0 0 0 0 0 0
0 0 0 0 0 0 0 0 0 0 0 0 0 0 0 0 0 0 0 0 0 0 0 0 0 0 0 0 0 0 0 0 0 0 0 0 0 0 0 0 0 0 0
0 0 0 0 0 0 0 0 0 0 0 0 0 0 0 0 0 0 0 0 0 0 0 0 0 0 0 0 0 0 0 0 0 0 0 0 0 0 0 0 0 0 0
0 0 0 0 0 0 0 0 0 0 0 0 0 0 0 0 0 0 0 0 0 0 0 0 0 0 0 0 0 0 0 0 0 0 0 0 0 0 0 0 0 0 0
0 0 0 0 0 0 0 0 0 0 0 0 0 0 0 0 0 0 0 0 0 0 0 0 0 0 0 0 0 0 0 0 0 0 0 0 0 0 0 0 0 0 0
0 0 0 0 0 0 0 0 0 0 0 0 0 0 0 0 0 0 0 0 0 0 0 0 0 0 0 0 0 0 0 0 0 0 0 0 0 0 0 0 0 0 0
0 0 0 0 0 0 0 0 0 0 0 0 0 0 0 0 0 0 0 0 0 0 0 0 0 0 0 0 0 0 0 0 0 0 0 0 0 0 0 0 0 0 0
0 0 0 0 0 0 0 0 0 0 0 0 0 0 0 0 0 0 0 0 0 0 0 0 0 0 0 0 0 0 0 0 0 0 0 0 0 0 0 0 0 0 0
Wind_Speed
2 3 8 10 11 12 12 12 11 11 12 12 12 12 12 13 13 13 12 12 12 12 12 12 12 12 12 12 13 13 13 13 13 12 11 11 11 12 12 11 10 7 12
4 4 8 9 11 12 11 11 10 11 11 11 11 12 12 12 12 12 12 12 11 11 11 11 11 11 11 11 12 12 12 12 11 10 9 7 8 10 10 10 10 7 11
4 4 6 8 9 10 11 11 11 10 10 10 11 11 12 12 12 12 12 11 11 11 11 11 11 11 10 10 10 10 10 10 9 8 6 3 5 9 9 9 9 9 9
5 4 4 7 9 9 10 11 11 10 10 10 10 10 11 11 11 11 11 11 10 10 10 10 10 10 10 9 9 9 9 8 7 6 3 2 2 7 8 8 8 8 8
4 3 4 6 8 9 9 10 11 10 10 10 9 9 10 11 11 11 11 10 10 10 10 10 10 10 9 8 7 7 6 6 5 5 3 2 2 6 7 7 7 7 7
3 2 3 5 7 8 8 9 10 10 10 10 9 9 10 10 11 10 10 10 10 9 10 10 10 9 8 7 6 5 5 5 5 3 2 2 1 5 6 6 6 5 5
3 2 3 4 6 7 7 8 9 10 10 10 10 10 10 10 10 10 10 10 10 10 10 10 10 9 8 6 5 4 3 4 3 2 2 1 2 5 5 5 5 4 4
3 2 2 3 4 5 6 7 8 8 9 9 10 10 10 10 10 10 10 10 10 10 10 10 10 9 7 6 5 3 2 2 3 2 2 1 3 4 5 4 3 3 3
3 2 1 1 2 3 4 5 7 7 8 8 9 9 9 9 9 10 11 10 10 10 10 10 10 9 8 6 5 3 2 3 2 2 2 2 3 4 4 4 3 2 2
3 2 1 1 1 1 2 3 5 6 7 7 8 8 8 8 9 9 9 10 10 10 10 10 10 9 8 6 4 3 2 2 1 2 2 3 4 4 4 3 2 1 1
3 2 1 1 0 0 1 2 2 4 5 6 6 7 7 5 5 6 8 9 9 10 10 10 9 8 7 5 5 3 2 1 1 1 2 4 6 5 4 3 3 2 1
2 2 1 1 1 1 1 1 1 2 2 3 3 4 4 4 4 5 7 9 10 9 10 10 9 8 5 2 3 3 1 1 1 2 3 6 7 6 5 4 3 3 2
2 2 1 1 1 1 1 1 1 1 1 2 3 4 3 3 3 3 3 4 5 6 5 6 5 4 3 3 2 2 2 2 1 2 3 6 7 6 5 4 4 3 3
2 2 2 1 1 1 1 1 2 2 2 2 3 4 3 3 3 3 3 4 3 3 4 3 3 4 4 4 4 3 3 2 2 2 3 6 6 6 6 5 5 5 5
2 3 3 2 1 1 1 1 2 2 3 3 3 3 4 4 4 4 3 4 4 3 4 4 4 4 4 4 4 4 3 3 3 3 2 6 6 6 6 5 5 5 6
2 3 3 2 2 2 2 2 2 2 3 3 3 4 5 4 4 4 4 4 4 4 4 5 5 5 4 4 4 4 4 4 3 3 3 4 6 6 6 6 6 6 6
2 2 2 2 2 2 2 2 2 2 2 3 3 4 4 4 5 4 4 4 4 4 4 3 4 4 4 4 4 4 4 4 4 4 4 3 3 5 6 6 6 6 7
1 2 2 2 3 2 2 2 1 1 2 2 2 3 4 5 5 4 4 4 4 4 4 4 4 4 4 3 3 4 4 4 4 4 3 3 3 3 4 6 6 7 7
2 1 2 2 3 3 2 1 1 1 1 2 2 2 3 4 4 4 3 4 4 4 4 4 3 3 3 3 3 3 3 3 4 4 4 4 4 3 3 4 5 6 6
2 1 1 2 3 3 1 1 1 0 1 1 1 2 3 3 4 4 3 3 4 3 3 3 3 3 2 3 3 3 2 3 3 3 4 4 4 4 3 3 3 4 6
2 2 1 2 2 2 1 1 0 1 1 1 1 1 2 2 3 3 3 3 3 3 4 4 3 3 2 1 1 1 1 2 3 3 3 3 3 4 3 4 3 3 3
2 2 2 2 2 2 1 1 1 1 1 1 1 0 2 2 2 3 3 3 2 2 3 3 3 2 1 1 2 1 1 2 2 3 2 3 3 2 3 4 4 4 3
2 3 3 3 3 2 1 0 1 1 1 1 1 0 1 1 2 2 3 2 2 2 3 3 4 4 3 2 2 2 2 3 1 2 3 3 3 2 3 3 4 4 4
3 3 3 3 3 2 1 1 1 1 1 2 1 1 0 1 1 2 3 3 2 2 2 2 2 3 4 3 1 1 1 1 2 2 2 2 3 3 4 3 3 4 5
2 2 3 3 2 2 1 2 2 1 1 1 1 1 1 1 2 2 3 3 2 2 2 2 2 2 2 3 2 2 1 1 1 2 3 3 2 3 4 4 4 4 5
2 2 2 2 2 1 1 1 2 2 1 1 1 2 1 1 1 2 2 2 2 2 2 2 2 2 2 3 2 2 3 2 2 2 3 3 4 4 4 4 4 4 4
Wind_Direction
203 189 166 158 153 149 146 143 141 141 139 136 132 131 128 126 123 122 122 123 123 121 118 114 112 109 106 104 103 101 98 95 91 86 81 79 84 87 85 80 75 68 75
175 174 160 158 156 153 151 147 144 145 146 145 143 140 138 136 133 130 128 128 128 126 123 120 117 114 111 109 107 105 101 97 94 88 77 71 81 88 88 86 83 80 77
137 157 157 158 155 155 153 151 149 149 152 153 153 150 147 145 142 140 138 136 135 131 128 125 124 120 115 112 112 110 106 102 98 90 82 72 85 91 91 90 87 82 79
132 142 151 159 157 156 157 155 155 155 157 158 160 158 155 154 152 149 145 144 142 137 133 130 127 124 120 117 116 115 110 104 96 90 80 81 89 99 96 94 88 83 79
118 131 149 157 160 159 161 162 161 161 163 164 163 162 163 162 160 158 153 150 147 142 138 135 132 129 127 126 124 121 113 100 88 87 89 93 90 103 100 95 89 85 81
93 106 140 152 157 160 161 165 167 166 167 168 169 169 168 167 165 162 157 151 149 148 146 143 141 138 138 138 136 128 112 88 87 91 107 112 109 110 108 103 96 89 83
86 89 132 142 154 161 166 170 173 174 174 173 175 176 175 173 169 165 161 157 157 158 157 155 152 150 152 153 151 139 108 87 98 103 122 130 145 125 119 113 104 96 86
110 100 119 133 147 161 172 179 179 181 183 181 183 184 183 180 176 172 167 165 166 167 166 164 162 161 166 169 166 150 112 94 112 133 145 177 168 141 130 119 109 100 89
84 93 95 142 146 155 176 188 191 191 189 188 187 186 184 183 181 178 175 173 175 175 172 170 171 173 177 181 179 166 133 112 121 159 175 195 181 155 141 136 135 126 102
47 56 62 66 116 150 182 191 198 200 196 192 189 186 185 184 182 181 181 182 181 180 177 178 179 182 184 189 190 184 164 133 146 177 189 205 192 165 154 154 160 161 136
22 9 15 17 1 187 194 193 192 203 200 192 189 186 182 181 180 182 186 187 187 185 184 185 186 187 185 192 196 198 180 162 167 186 199 204 188 176 169 173 180 188 197
346 333 343 337 294 257 229 203 210 206 201 193 184 182 180 176 181 185 189 191 192 191 190 191 190 188 180 185 197 192 184 193 197 204 206 201 192 189 187 188 197 215 227
288 312 319 316 301 256 245 218 214 208 200 195 189 182 176 174 179 184 180 190 195 195 193 194 189 184 181 186 191 195 199 200 208 216 213 207 202 198 197 202 214 229 238
304 300 298 291 289 273 246 232 213 206 202 199 198 188 175 176 182 187 189 187 186 187 187 186 184 185 188 193 194 199 207 207 207 210 213 209 208 207 210 216 226 237 247
298 305 302 290 264 263 253 243 221 216 208 203 195 194 184 183 188 190 190 187 187 185 186 186 186 189 195 199 202 201 210 217 215 211 216 210 209 214 218 221 230 241 252
290 292 297 299 277 256 237 237 233 225 216 203 199 198 192 189 190 190 189 189 191 190 191 191 190 192 199 200 210 210 211 215 214 209 213 214 216 216 220 225 235 245 253
284 298 300 298 306 282 251 240 232 227 219 211 209 203 196 192 190 189 189 193 196 191 186 186 190 190 200 206 215 217 215 217 214 210 209 212 219 221 223 228 234 241 251
307 320 317 323 326 298 269 255 245 226 222 221 216 207 200 192 184 183 188 196 196 188 185 186 187 191 203 207 217 222 218 216 214 210 206 208 209 214 224 235 245 249 254
311 308 317 323 321 304 282 266 255 238 233 235 220 212 202 192 184 182 191 195 186 185 189 194 193 191 199 209 219 221 218 216 215 208 204 208 209 208 217 236 245 254 262
314 308 313 320 319 313 313 327 316 294 285 273 225 218 214 197 188 182 188 191 184 181 187 191 189 194 197 206 225 230 229 223 215 209 207 211 213 215 217 227 234 252 261
329 332 327 318 313 328 330 313 276 265 280 292 258 219 215 200 186 185 184 182 185 188 192 186 183 187 196 172 165 262 271 233 216 219 217 211 217 219 219 226 230 239 257
297 304 308 294 292 288 270 264 228 238 251 240 240 246 217 182 183 182 169 175 181 182 185 183 179 176 181 163 155 150 253 279 254 240 224 214 218 224 232 236 232 233 241
284 284 287 284 283 282 277 290 14 32 350 326 287 308 274 176 176 162 156 164 170 170 184 188 185 183 186 195 175 161 173 222 271 264 235 220 217 231 248 247 240 241 245
269 276 280 283 283 276 248 201 185 191 225 241 231 217 251 138 158 152 144 148 160 164 168 183 184 183 178 189 189 187 196 177 191 257 267 239 236 243 244 255 255 251 248
264 280 283 287 282 265 240 205 192 199 229 240 196 176 192 145 138 141 143 149 158 162 159 157 159 166 179 187 188 177 186 242 210 209 260 269 266 248 244 245 244 256 261
281 290 291 297 292 272 225 203 197 186 174 172 209 194 190 149 139 132 135 144 157 165 169 171 162 166 190 192 197 195 192 196 209 216 249 268 265 259 252 244 242 249 260